Location: ??????
(38.3184°N, 23.6932°E)
Time: 01:42:45
(UTC+00:00)

Cosmos 1758 - Pass Details

Date: 16 October 2021
Orbit: 540 x 560 km, 82.5° (Epoch: 04 December)

Event Time Altitude Azimuth Distance (km) Brightness Sun altitude
Rises 16:23:03 0° 189° (S) 2,706 7.1 -8.1°
Reaches altitude 10° 16:25:12 10° 191° (S) 1,814 6.2 -8.5°
Maximum altitude 16:29:12 76° 278° (W) 566 3.5 -9.3°
Drops below altitude 10° 16:33:11 10° 4° (N) 1,816 5.9 -10.0°
Sets 16:35:21 0° 6° (N) 2,711 6.8 -10.5°
